Hourly Data Report for May 04, 2021

TOBERMORY RCS
ONTARIO
Current Station Operator: ECCC - MSC

45°14'00.000" N
81°38'00.000" W
213.50 m
6128330
71767
TTR

Download Data

Hourly Data (May 2021)
Hourly Data Report for May 4, 2021
TIME
LST
Temp Definition
°C
Dew Point Definition
°C
Rel Hum Definition
%
Precip. Amount Definition
mm

Wind Dir Definition
10's deg

Wind Spd Definition
km/h
Visibility Definition
km
Stn Press Definition
kPa
Hmdx Definition


Wind Chill Definition


Weather Definition


00:00 6.7 6.1 96 0.1 9 12   98.02     LegendNANA
01:00 6.7 6.1 96 0.0 10 14   97.99     LegendNANA
02:00 6.5 6.0 97 0.0 11 16   97.93     LegendNANA
03:00 6.4 5.9 97 0.0 10 13   97.88     LegendNANA
04:00 6.3 5.8 97 0.0 10 11   97.85     LegendNANA
05:00 6.0 5.6 97 0.0 9 9   97.86     LegendNANA
06:00 6.0 5.6 97 3.1 9 11   97.89     LegendNANA
07:00 5.1 4.6 97 4.1 7 9   97.88     LegendNANA
08:00 6.4 6.1 98 1.7 9 10   97.88     LegendNANA
09:00 6.6 6.1 97 1.5 10 11   97.87     LegendNANA
10:00 6.8 6.3 97 0.0 9 10   97.87     LegendNANA
11:00 7.1 6.7 97 0.0 8 7   97.89     LegendNANA
12:00 7.8 7.3 97 0.4 9 7   97.90     LegendNANA
13:00 6.8 6.2 96 0.0 4 5   97.88     LegendNANA
14:00 5.9 5.5 97 0.0 36 8   97.90     LegendNANA
15:00 5.6 5.4 98 0.0 2 10   97.95     LegendNANA
16:00 5.8 5.6 98 0.0 35 12   97.98     LegendNANA
17:00 6.6 6.4 98 0.0 35 8   98.07     LegendNANA
18:00 6.6 6.3 98 0.1 31 8   98.12     LegendNANA
19:00 6.4 6.1 98 0.0 32 13   98.20     LegendNANA
20:00 5.7 5.3 97 0.0 30 11   98.21     LegendNANA
21:00 5.4 4.9 96 0.0 30 8   98.23     LegendNANA
22:00 5.2 4.6 96 0.0 29 12   98.26     LegendNANA
23:00 4.7 4.1 96 0.0 30 15   98.29     LegendNANA

Notes on Data Quality.

Legend

  • E = Estimated
  • M = Missing
  • NA = Not Available*
  • [empty] = Indicates an unobserved value
Date modified: